Portada
METAR-TAF:

METAR-TAF

Aeroports :

Illinois Valley Regional Airport (Walter A. Duncan Field)

Peru-LaSalle, Illinois, Estats Units d'Amèrica

latitud: 41-21-07N, longitud: 089-09-11W, altitud: 199 m

Observació

L'informe es va fer fa 25 minuts, a les 03:55 UTC
Vent 4 kt del Est
Temperatura 23°C
Humitat 89%
Pressió 1016 hPa
Visibilitat: 16.1 km
Núvols disperses a una alçada de 9000 ft

METAR: KVYS 180355Z AUTO 10004KT 10SM SCT090 23/21 A3001 RMK AO2 T02340212

Hora: 23:20 (04:20 UTC)


TAF: manca

Observacions i pronòstics meteorològics de més de 4000 aeroports (METAR i TAF).

Les estacions disponibles són els punts grocs i vermells al mapa.

Posi el ratolí al punt desitjat per veure el nom de l'estació.

Feu clic per veure les observacions i els pronòstics meteorològics.

Per canviar el mapa: feu clic els botons verds amb una creu de color negre per apropar; al botó verd amb un guió per allunyar la imatge; o en les fletxes verdes per a mapes adjacents.


METAR-TAF: